User: anonymous   Login
Location: Aalen
(48.8330°N, 10.1000°E)
Time: 02:05:28
(UTC+02:00)
Language:

PCSat - Orbit

View from above orbital plane
View from above orbital plane
View from above satellite
View from above satellite

Ground track
Ground track

The orbit data is extracted from the following two-line orbital elements,

1 26931U 01043C   21259.48060903 -.00000012  00000-0  27214-4 0  9992
2 26931  67.0520  45.5113 0005411 268.1166  91.9316 14.30632299 42210
Epoch (UTC): 16 September 2021 11:32:04
Eccentricity: 0.0005411
inclination: 67.0520°
perigee height: 786 km
apogee height: 793 km
right ascension of ascending node: 45.5113°
argument of perigee: 268.1166°
revolutions per day: 14.30632299
mean anomaly at epoch: 91.9316°
orbit number at epoch: 4221

The dashed part of the orbit path shows where the satellite is in the earth's shadow,  

DLR